Time,TemperatureF,DewpointF,PressureIn,WindDirection,WindDirectionDegrees,WindSpeedMPH,WindSpeedGustMPH,Humidity,HourlyPrecipIn,Conditions,Clouds,dailyrainin,SoftwareType,DateUTC
2013-01-15 00:03:00,36.5,18.2,29.68,North,0,0.0,0.0,47,0.00,,BKN,0.00,VWS V14.01,2013-01-15 06:03:00,
2013-01-15 00:08:00,36.5,18.2,29.68,North,0,0.0,0.0,47,0.00,,BKN,0.00,VWS V14.01,2013-01-15 06:08:00,
2013-01-15 00:13:00,36.5,18.2,29.68,North,0,0.0,0.0,47,0.00,,BKN,0.00,VWS V14.01,2013-01-15 06:13:00,
2013-01-15 00:18:00,36.3,18.0,29.68,North,0,0.0,0.0,47,0.00,,BKN,0.00,VWS V14.01,2013-01-15 06:18:00,
2013-01-15 00:23:00,36.3,18.0,29.68,North,0,0.0,0.0,47,0.00,,BKN,0.00,VWS V14.01,2013-01-15 06:23:00,
2013-01-15 00:28:00,36.3,18.0,29.68,North,0,0.0,0.0,47,0.00,,BKN,0.00,VWS V14.01,2013-01-15 06:28:00,
2013-01-15 00:34:00,36.3,18.0,29.65,North,0,0.0,0.0,47,0.00,,BKN,0.00,VWS V14.01,2013-01-15 06:34:00,
2013-01-15 00:39:00,36.3,18.0,29.65,North,0,0.0,0.0,47,0.00,,BKN,0.00,VWS V14.01,2013-01-15 06:39:00,
2013-01-15 00:44:00,36.1,17.9,29.65,North,0,0.0,0.0,47,0.00,,BKN,0.00,VWS V14.01,2013-01-15 06:44:00,
2013-01-15 00:49:00,36.1,17.9,29.65,North,0,0.0,0.0,47,0.00,,BKN,0.00,VWS V14.01,2013-01-15 06:49:00,
2013-01-15 00:54:00,36.0,17.7,29.65,North,0,0.0,0.0,47,0.00,,BKN,0.00,VWS V14.01,2013-01-15 06:54:00,
2013-01-15 00:59:00,36.0,17.7,29.65,North,0,0.0,0.0,47,0.00,,BKN,0.00,VWS V14.01,2013-01-15 06:59:00,
2013-01-15 01:05:00,35.8,17.5,29.65,North,0,0.0,0.0,47,0.00,,BKN,0.00,VWS V14.01,2013-01-15 07:05:00,
2013-01-15 01:10:00,35.8,18.0,29.65,North,0,0.0,0.0,48,0.00,,BKN,0.00,VWS V14.01,2013-01-15 07:10:00,
2013-01-15 01:15:00,35.8,18.0,29.65,North,0,0.0,0.0,48,0.00,,BKN,0.00,VWS V14.01,2013-01-15 07:15:00,
2013-01-15 01:20:00,36.0,18.2,29.65,North,0,0.0,0.0,48,0.00,,BKN,0.00,VWS V14.01,2013-01-15 07:20:00,
2013-01-15 01:25:00,36.0,18.2,29.65,North,0,0.0,0.0,48,0.00,,BKN,0.00,VWS V14.01,2013-01-15 07:25:00,
2013-01-15 01:30:00,36.1,18.4,29.65,North,0,0.0,0.0,48,0.00,,BKN,0.00,VWS V14.01,2013-01-15 07:30:00,
2013-01-15 01:35:00,36.1,17.9,29.65,North,0,0.0,0.0,47,0.00,,BKN,0.00,VWS V14.01,2013-01-15 07:35:00,
2013-01-15 01:40:00,36.1,17.9,29.65,North,0,0.0,0.0,47,0.00,,BKN,0.00,VWS V14.01,2013-01-15 07:40:00,
2013-01-15 01:45:00,36.3,18.0,29.65,North,0,0.0,0.0,47,0.00,,BKN,0.00,VWS V14.01,2013-01-15 07:45:00,
2013-01-15 01:51:00,36.5,18.2,29.65,North,0,0.0,0.0,47,0.00,,BKN,0.00,VWS V14.01,2013-01-15 07:51:00,
2013-01-15 01:56:00,36.7,18.4,29.65,North,0,0.0,0.0,47,0.00,,BKN,0.00,VWS V14.01,2013-01-15 07:56:00,
2013-01-15 02:01:00,36.7,18.4,29.65,North,0,0.0,0.0,47,0.00,,BKN,0.00,VWS V14.01,2013-01-15 08:01:00,
2013-01-15 02:06:00,36.7,18.4,29.65,North,0,0.0,0.0,47,0.00,,BKN,0.00,VWS V14.01,2013-01-15 08:06:00,
2013-01-15 02:11:00,36.9,18.5,29.65,North,0,0.0,0.0,47,0.00,,BKN,0.00,VWS V14.01,2013-01-15 08:11:00,
2013-01-15 02:16:00,36.7,18.4,29.65,North,0,0.0,0.0,47,0.00,,BKN,0.00,VWS V14.01,2013-01-15 08:16:00,
2013-01-15 02:21:00,36.5,18.2,29.65,North,0,0.0,0.0,47,0.00,,BKN,0.00,VWS V14.01,2013-01-15 08:21:00,
2013-01-15 02:26:00,36.3,18.5,29.65,North,0,0.0,0.0,48,0.00,,BKN,0.00,VWS V14.01,2013-01-15 08:26:00,
2013-01-15 02:32:00,36.1,18.4,29.65,North,0,0.0,0.0,48,0.00,,BKN,0.00,VWS V14.01,2013-01-15 08:32:00,
2013-01-15 02:37:00,36.3,19.0,29.65,North,0,0.0,0.0,49,0.00,,BKN,0.00,VWS V14.01,2013-01-15 08:37:00,
2013-01-15 02:42:00,36.3,19.0,29.65,North,0,0.0,0.0,49,0.00,,BKN,0.00,VWS V14.01,2013-01-15 08:42:00,
2013-01-15 02:47:00,36.3,19.0,29.65,North,0,0.0,0.0,49,0.00,,BKN,0.00,VWS V14.01,2013-01-15 08:47:00,
2013-01-15 02:52:00,36.5,18.7,29.65,North,0,0.0,0.0,48,0.00,,BKN,0.00,VWS V14.01,2013-01-15 08:52:00,
2013-01-15 02:57:00,36.5,18.7,29.65,North,0,0.0,0.0,48,0.00,,BKN,0.00,VWS V14.01,2013-01-15 08:57:00,
2013-01-15 03:02:00,36.7,18.9,29.65,North,0,0.0,0.0,48,0.00,,BKN,0.00,VWS V14.01,2013-01-15 09:02:00,
2013-01-15 03:07:00,36.9,18.5,29.65,North,0,0.0,0.0,47,0.00,,BKN,0.00,VWS V14.01,2013-01-15 09:07:00,
2013-01-15 03:12:00,36.9,18.0,29.65,North,0,0.0,0.0,46,0.00,,BKN,0.00,VWS V14.01,2013-01-15 09:12:00,
2013-01-15 03:18:00,36.9,17.0,29.65,North,0,0.0,0.0,44,0.00,,BKN,0.00,VWS V14.01,2013-01-15 09:18:00,
2013-01-15 03:23:00,36.9,15.9,29.65,North,0,0.0,0.0,42,0.00,,BKN,0.00,VWS V14.01,2013-01-15 09:23:00,
2013-01-15 03:28:00,37.0,16.1,29.65,North,0,0.0,0.0,42,0.00,,BKN,0.00,VWS V14.01,2013-01-15 09:28:00,
2013-01-15 03:33:00,37.0,15.5,29.65,North,0,0.0,0.0,41,0.00,,BKN,0.00,VWS V14.01,2013-01-15 09:33:00,
2013-01-15 03:38:00,37.0,15.5,29.65,North,0,0.0,0.0,41,0.00,,BKN,0.00,VWS V14.01,2013-01-15 09:38:00,
2013-01-15 03:43:00,37.0,15.5,29.65,North,0,0.0,0.0,41,0.00,,BKN,0.00,VWS V14.01,2013-01-15 09:43:00,
2013-01-15 03:48:00,37.0,15.5,29.65,North,0,0.0,0.0,41,0.00,,BKN,0.00,VWS V14.01,2013-01-15 09:48:00,
2013-01-15 03:53:00,37.0,15.5,29.65,North,0,0.0,0.0,41,0.00,,BKN,0.00,VWS V14.01,2013-01-15 09:53:00,
2013-01-15 03:58:00,37.0,15.5,29.65,North,0,0.0,0.0,41,0.00,,BKN,0.00,VWS V14.01,2013-01-15 09:58:00,
2013-01-15 04:04:00,37.0,15.5,29.65,North,0,0.0,0.0,41,0.00,,BKN,0.00,VWS V14.01,2013-01-15 10:04:00,
2013-01-15 04:09:00,36.9,15.4,29.65,North,0,0.0,0.0,41,0.00,,BKN,0.00,VWS V14.01,2013-01-15 10:09:00,
2013-01-15 04:14:00,36.9,15.4,29.65,North,0,0.0,0.0,41,0.00,,BKN,0.00,VWS V14.01,2013-01-15 10:14:00,
2013-01-15 04:19:00,36.7,15.8,29.65,North,0,0.0,0.0,42,0.00,,BKN,0.00,VWS V14.01,2013-01-15 10:19:00,
2013-01-15 04:24:00,36.7,15.8,29.65,North,0,0.0,0.0,42,0.00,,BKN,0.00,VWS V14.01,2013-01-15 10:24:00,
2013-01-15 04:29:00,36.5,16.1,29.65,North,0,0.0,0.0,43,0.00,,BKN,0.00,VWS V14.01,2013-01-15 10:29:00,
2013-01-15 04:34:00,36.3,16.5,29.65,North,0,0.0,0.0,44,0.00,,BKN,0.00,VWS V14.01,2013-01-15 10:34:00,
2013-01-15 04:39:00,36.1,17.4,29.65,North,0,0.0,0.0,46,0.00,,BKN,0.00,VWS V14.01,2013-01-15 10:39:00,
2013-01-15 04:44:00,35.8,17.5,29.65,North,0,0.0,0.0,47,0.00,,BKN,0.00,VWS V14.01,2013-01-15 10:44:00,
2013-01-15 04:50:00,35.8,18.0,29.65,North,0,0.0,0.0,48,0.00,,BKN,0.00,VWS V14.01,2013-01-15 10:50:00,
2013-01-15 04:55:00,35.6,17.9,29.65,North,0,0.0,0.0,48,0.00,,BKN,0.00,VWS V14.01,2013-01-15 10:55:00,
2013-01-15 05:00:00,35.4,18.6,29.62,North,0,0.0,0.0,50,0.00,,BKN,0.00,VWS V14.01,2013-01-15 11:00:00,
2013-01-15 05:05:00,35.1,18.3,29.62,North,0,0.0,0.0,50,0.00,,BKN,0.00,VWS V14.01,2013-01-15 11:05:00,
2013-01-15 05:10:00,35.1,18.8,29.62,North,0,0.0,0.0,51,0.00,,BKN,0.00,VWS V14.01,2013-01-15 11:10:00,
2013-01-15 05:15:00,35.2,18.9,29.65,North,0,0.0,0.0,51,0.00,,BKN,0.00,VWS V14.01,2013-01-15 11:15:00,
2013-01-15 05:20:00,35.1,18.8,29.65,North,0,0.0,0.0,51,0.00,,BKN,0.00,VWS V14.01,2013-01-15 11:20:00,
2013-01-15 05:25:00,35.1,18.8,29.65,North,0,0.0,0.0,51,0.00,,BKN,0.00,VWS V14.01,2013-01-15 11:25:00,
2013-01-15 05:30:00,34.9,19.5,29.62,North,0,0.0,0.0,53,0.00,,BKN,0.00,VWS V14.01,2013-01-15 11:30:00,
2013-01-15 05:35:00,34.3,20.3,29.62,North,0,0.0,0.0,56,0.00,,BKN,0.00,VWS V14.01,2013-01-15 11:35:00,
2013-01-15 05:40:00,33.8,20.6,29.62,North,0,0.0,0.0,58,0.00,,BKN,0.00,VWS V14.01,2013-01-15 11:40:00,
2013-01-15 05:45:00,33.8,21.0,29.68,North,0,0.0,0.0,59,0.00,,BKN,0.00,VWS V14.01,2013-01-15 11:45:00,
2013-01-15 05:51:00,33.4,21.5,29.68,North,0,0.0,0.0,61,0.00,,BKN,0.00,VWS V14.01,2013-01-15 11:51:00,
2013-01-15 05:56:00,33.1,22.2,29.68,North,0,0.0,0.0,64,0.00,,BKN,0.00,VWS V14.01,2013-01-15 11:56:00,
2013-01-15 06:01:00,32.7,22.6,29.65,North,0,0.0,0.0,66,0.00,,BKN,0.00,VWS V14.01,2013-01-15 12:01:00,
2013-01-15 06:06:00,32.7,23.3,29.65,North,0,0.0,0.0,68,0.00,,BKN,0.00,VWS V14.01,2013-01-15 12:06:00,
2013-01-15 06:11:00,32.5,23.9,29.65,North,0,0.0,0.0,70,0.00,,BKN,0.00,VWS V14.01,2013-01-15 12:11:00,
2013-01-15 06:16:00,32.4,24.4,29.68,North,0,0.0,0.0,72,0.00,,BKN,0.00,VWS V14.01,2013-01-15 12:16:00,
2013-01-15 06:21:00,32.4,24.7,29.68,North,0,0.0,0.0,73,0.00,,BKN,0.00,VWS V14.01,2013-01-15 12:21:00,
2013-01-15 06:27:00,32.2,24.8,29.68,North,0,0.0,0.0,74,0.00,,BKN,0.00,VWS V14.01,2013-01-15 12:27:00,
2013-01-15 06:32:00,32.4,25.3,29.68,North,0,0.0,0.0,75,0.00,,BKN,0.00,VWS V14.01,2013-01-15 12:32:00,
2013-01-15 06:37:00,32.4,25.3,29.68,North,0,0.0,0.0,75,0.00,,BKN,0.00,VWS V14.01,2013-01-15 12:37:00,
2013-01-15 06:42:00,32.5,25.5,29.68,North,0,0.0,0.0,75,0.00,,BKN,0.00,VWS V14.01,2013-01-15 12:42:00,
2013-01-15 06:47:00,32.7,25.7,29.68,North,0,0.0,0.0,75,0.00,,BKN,0.00,VWS V14.01,2013-01-15 12:47:00,
2013-01-15 06:52:00,32.7,25.7,29.68,North,0,0.0,0.0,75,0.00,,BKN,0.00,VWS V14.01,2013-01-15 12:52:00,
2013-01-15 06:57:00,32.5,25.5,29.68,North,0,0.0,0.0,75,0.00,,BKN,0.00,VWS V14.01,2013-01-15 12:57:00,
2013-01-15 07:03:00,32.5,25.8,29.68,North,0,0.0,0.0,76,0.00,,BKN,0.00,VWS V14.01,2013-01-15 13:03:00,
2013-01-15 07:08:00,32.5,25.8,29.68,North,0,0.0,0.0,76,0.00,,BKN,0.00,VWS V14.01,2013-01-15 13:08:00,
2013-01-15 07:13:00,32.5,25.8,29.68,North,0,0.0,0.0,76,0.00,,BKN,0.00,VWS V14.01,2013-01-15 13:13:00,
2013-01-15 07:18:00,32.5,26.1,29.65,North,0,0.0,0.0,77,0.00,,BKN,0.00,VWS V14.01,2013-01-15 13:18:00,
2013-01-15 07:23:00,32.2,25.5,29.65,North,0,0.0,0.0,76,0.00,,BKN,0.00,VWS V14.01,2013-01-15 13:23:00,
2013-01-15 07:28:00,32.2,25.8,29.65,North,0,0.0,0.0,77,0.00,,BKN,0.00,VWS V14.01,2013-01-15 13:28:00,
2013-01-15 07:33:00,32.2,26.1,29.65,North,0,0.0,0.0,78,0.00,,BKN,0.00,VWS V14.01,2013-01-15 13:33:00,
2013-01-15 07:39:00,32.4,26.3,29.65,North,0,0.0,0.0,78,0.00,,BKN,0.00,VWS V14.01,2013-01-15 13:39:00,
2013-01-15 07:44:00,32.4,26.3,29.65,North,0,0.0,0.0,78,0.00,,BKN,0.00,VWS V14.01,2013-01-15 13:44:00,
2013-01-15 07:49:00,32.4,26.3,29.65,North,0,0.0,0.0,78,0.00,,BKN,0.00,VWS V14.01,2013-01-15 13:49:00,
2013-01-15 07:54:00,32.5,26.5,29.65,North,0,0.0,0.0,78,0.00,,BKN,0.00,VWS V14.01,2013-01-15 13:54:00,
2013-01-15 07:59:00,32.7,26.6,29.65,North,0,0.0,0.0,78,0.00,,BKN,0.00,VWS V14.01,2013-01-15 13:59:00,
2013-01-15 08:05:00,32.5,26.5,29.65,North,0,0.0,0.0,78,0.00,,BKN,0.00,VWS V14.01,2013-01-15 14:05:00,
2013-01-15 08:10:00,32.5,26.5,29.65,North,0,0.0,0.0,78,0.00,,BKN,0.00,VWS V14.01,2013-01-15 14:10:00,
2013-01-15 08:15:00,32.7,26.6,29.65,North,0,0.0,0.0,78,0.00,,BKN,0.00,VWS V14.01,2013-01-15 14:15:00,
2013-01-15 08:20:00,32.7,26.6,29.65,North,0,0.0,0.0,78,0.00,,BKN,0.00,VWS V14.01,2013-01-15 14:20:00,
2013-01-15 08:25:00,32.9,26.5,29.65,North,0,0.0,0.0,77,0.00,,BKN,0.00,VWS V14.01,2013-01-15 14:25:00,
2013-01-15 08:30:00,33.1,26.7,29.65,North,0,0.0,0.0,77,0.00,,BKN,0.00,VWS V14.01,2013-01-15 14:30:00,
2013-01-15 08:35:00,33.1,26.7,29.65,North,0,0.0,0.0,77,0.00,,BKN,0.00,VWS V14.01,2013-01-15 14:35:00,
2013-01-15 08:40:00,33.1,26.7,29.65,North,0,0.0,0.0,77,0.00,,BKN,0.00,VWS V14.01,2013-01-15 14:40:00,
2013-01-15 08:45:00,33.3,26.5,29.65,North,0,0.0,0.0,76,0.00,,BKN,0.00,VWS V14.01,2013-01-15 14:45:00,
2013-01-15 08:50:00,33.4,26.7,29.65,North,0,0.0,0.0,76,0.00,,BKN,0.00,VWS V14.01,2013-01-15 14:50:00,
2013-01-15 08:55:00,33.6,26.9,29.65,North,0,0.0,0.0,76,0.00,,BKN,0.00,VWS V14.01,2013-01-15 14:55:00,
2013-01-15 09:01:00,33.8,26.4,29.65,North,0,0.0,0.0,74,0.00,,BKN,0.00,VWS V14.01,2013-01-15 15:01:00,
2013-01-15 09:06:00,34.0,26.6,29.65,North,0,0.0,0.0,74,0.00,,BKN,0.00,VWS V14.01,2013-01-15 15:06:00,
2013-01-15 09:11:00,34.0,26.2,29.65,North,0,0.0,0.0,73,0.00,,BKN,0.00,VWS V14.01,2013-01-15 15:11:00,
2013-01-15 09:16:00,34.0,26.2,29.65,North,0,0.0,0.0,73,0.00,,BKN,0.00,VWS V14.01,2013-01-15 15:16:00,
2013-01-15 09:21:00,34.0,25.9,29.65,North,0,0.0,0.0,72,0.00,,BKN,0.00,VWS V14.01,2013-01-15 15:21:00,
2013-01-15 09:26:00,34.0,25.9,29.65,North,0,0.0,0.0,72,0.00,,BKN,0.00,VWS V14.01,2013-01-15 15:26:00,
2013-01-15 09:32:00,34.0,25.9,29.65,North,0,0.0,0.0,72,0.00,,BKN,0.00,VWS V14.01,2013-01-15 15:32:00,
2013-01-15 09:37:00,34.3,26.3,29.65,North,0,0.0,0.0,72,0.00,,BKN,0.00,VWS V14.01,2013-01-15 15:37:00,
2013-01-15 09:42:00,34.5,26.4,29.65,North,0,0.0,0.0,72,0.00,,BKN,0.00,VWS V14.01,2013-01-15 15:42:00,
2013-01-15 09:47:00,34.5,26.4,29.65,North,0,0.0,0.0,72,0.00,,BKN,0.00,VWS V14.01,2013-01-15 15:47:00,
2013-01-15 09:52:00,34.7,26.3,29.65,North,0,0.0,0.0,71,0.00,,BKN,0.00,VWS V14.01,2013-01-15 15:52:00,
2013-01-15 09:57:00,34.9,26.5,29.65,North,0,0.0,0.0,71,0.00,,BKN,0.00,VWS V14.01,2013-01-15 15:57:00,
2013-01-15 10:03:00,35.2,27.1,29.65,North,0,0.0,0.0,72,0.00,,BKN,0.00,VWS V14.01,2013-01-15 16:03:00,
2013-01-15 10:08:00,35.6,27.1,29.65,North,0,0.0,0.0,71,0.00,,BKN,0.00,VWS V14.01,2013-01-15 16:08:00,
2013-01-15 10:13:00,35.4,26.6,29.65,North,0,0.0,0.0,70,0.00,,BKN,0.00,VWS V14.01,2013-01-15 16:13:00,
2013-01-15 10:18:00,35.4,26.6,29.65,North,0,0.0,0.0,70,0.00,,BKN,0.00,VWS V14.01,2013-01-15 16:18:00,
2013-01-15 10:23:00,35.6,26.5,29.65,North,0,0.0,0.0,69,0.00,,BKN,0.00,VWS V14.01,2013-01-15 16:23:00,
2013-01-15 10:28:00,35.4,25.9,29.65,North,0,0.0,0.0,68,0.00,,BKN,0.00,VWS V14.01,2013-01-15 16:28:00,
2013-01-15 10:34:00,35.4,25.6,29.65,North,0,0.0,0.0,67,0.00,,BKN,0.00,VWS V14.01,2013-01-15 16:34:00,
2013-01-15 10:39:00,35.6,25.7,29.65,North,0,0.0,0.0,67,0.00,,BKN,0.00,VWS V14.01,2013-01-15 16:39:00,
2013-01-15 10:44:00,36.0,26.1,29.65,North,0,0.0,0.0,67,0.00,,BKN,0.00,VWS V14.01,2013-01-15 16:44:00,
2013-01-15 10:49:00,36.1,25.5,29.65,North,0,0.0,0.0,65,0.00,,BKN,0.00,VWS V14.01,2013-01-15 16:49:00,
2013-01-15 10:54:00,36.3,25.3,29.65,North,0,0.0,0.0,64,0.00,,BKN,0.00,VWS V14.01,2013-01-15 16:54:00,
2013-01-15 11:00:00,36.7,25.7,29.65,North,0,0.0,0.0,64,0.00,,BKN,0.00,VWS V14.01,2013-01-15 17:00:00,
2013-01-15 11:05:00,36.9,25.5,29.65,North,0,0.0,0.0,63,0.00,,BKN,0.00,VWS V14.01,2013-01-15 17:05:00,
2013-01-15 11:10:00,36.9,25.5,29.65,North,0,0.0,0.0,63,0.00,,BKN,0.00,VWS V14.01,2013-01-15 17:10:00,
2013-01-15 11:15:00,36.9,25.1,29.65,North,0,0.0,0.0,62,0.00,,BKN,0.00,VWS V14.01,2013-01-15 17:15:00,
2013-01-15 11:20:00,36.9,25.1,29.65,North,0,0.0,0.0,62,0.00,,BKN,0.00,VWS V14.01,2013-01-15 17:20:00,
2013-01-15 11:25:00,36.7,24.9,29.65,North,0,0.0,0.0,62,0.00,,BKN,0.00,VWS V14.01,2013-01-15 17:25:00,
2013-01-15 11:31:00,36.9,25.5,29.65,North,0,0.0,0.0,63,0.00,,BKN,0.00,VWS V14.01,2013-01-15 17:31:00,
2013-01-15 11:36:00,37.0,25.6,29.65,North,0,0.0,0.0,63,0.00,,BKN,0.00,VWS V14.01,2013-01-15 17:36:00,
2013-01-15 11:41:00,37.0,25.6,29.65,North,0,0.0,0.0,63,0.00,,BKN,0.00,VWS V14.01,2013-01-15 17:41:00,
2013-01-15 11:46:00,37.0,24.9,29.65,North,0,0.0,0.0,61,0.00,,BKN,0.00,VWS V14.01,2013-01-15 17:46:00,
2013-01-15 11:51:00,36.9,24.7,29.65,North,0,0.0,0.0,61,0.00,,BKN,0.00,VWS V14.01,2013-01-15 17:51:00,
2013-01-15 11:57:00,36.9,25.5,29.65,North,0,0.0,0.0,63,0.00,,BKN,0.00,VWS V14.01,2013-01-15 17:57:00,
2013-01-15 12:02:00,36.9,25.5,29.65,North,0,0.0,0.0,63,0.00,,BKN,0.00,VWS V14.01,2013-01-15 18:02:00,
2013-01-15 12:07:00,36.9,25.5,29.65,North,0,0.0,0.0,63,0.00,,BKN,0.00,VWS V14.01,2013-01-15 18:07:00,
2013-01-15 12:12:00,37.0,26.0,29.65,North,0,0.0,0.0,64,0.00,,BKN,0.00,VWS V14.01,2013-01-15 18:12:00,
2013-01-15 12:17:00,37.0,26.8,29.65,North,0,0.0,0.0,66,0.00,,BKN,0.00,VWS V14.01,2013-01-15 18:17:00,
2013-01-15 12:22:00,37.2,27.3,29.65,North,0,0.0,0.0,67,0.00,,BKN,0.00,VWS V14.01,2013-01-15 18:22:00,
2013-01-15 12:28:00,37.0,27.1,29.65,North,0,0.0,0.0,67,0.00,,BKN,0.00,VWS V14.01,2013-01-15 18:28:00,
2013-01-15 12:33:00,37.0,27.1,29.62,North,0,0.0,0.0,67,0.00,,BKN,0.00,VWS V14.01,2013-01-15 18:33:00,
2013-01-15 12:38:00,36.9,26.9,29.62,North,0,0.0,0.0,67,0.00,,BKN,0.00,VWS V14.01,2013-01-15 18:38:00,
2013-01-15 12:43:00,37.0,27.1,29.62,North,0,0.0,0.0,67,0.00,,BKN,0.00,VWS V14.01,2013-01-15 18:43:00,
2013-01-15 12:48:00,37.2,27.3,29.62,North,0,0.0,0.0,67,0.00,,BKN,0.00,VWS V14.01,2013-01-15 18:48:00,
2013-01-15 12:53:00,37.4,27.1,29.62,North,0,0.0,0.0,66,0.00,,BKN,0.00,VWS V14.01,2013-01-15 18:53:00,
2013-01-15 12:59:00,37.8,27.4,29.62,North,0,0.0,0.0,66,0.00,,BKN,0.00,VWS V14.01,2013-01-15 18:59:00,
2013-01-15 13:04:00,37.9,27.2,29.62,North,0,0.0,0.0,65,0.00,,BKN,0.00,VWS V14.01,2013-01-15 19:04:00,
2013-01-15 13:09:00,38.1,27.4,29.62,North,0,0.0,0.0,65,0.00,,BKN,0.00,VWS V14.01,2013-01-15 19:09:00,
2013-01-15 13:14:00,38.3,27.2,29.62,North,0,0.0,0.0,64,0.00,,BKN,0.00,VWS V14.01,2013-01-15 19:14:00,
2013-01-15 13:19:00,38.3,26.0,29.62,North,0,0.0,0.0,61,0.00,,BKN,0.00,VWS V14.01,2013-01-15 19:19:00,
2013-01-15 13:25:00,38.3,26.0,29.62,North,0,0.0,0.0,61,0.00,,BKN,0.00,VWS V14.01,2013-01-15 19:25:00,
2013-01-15 13:30:00,38.3,25.6,29.62,North,0,0.0,0.0,60,0.00,,BKN,0.00,VWS V14.01,2013-01-15 19:30:00,
2013-01-15 13:35:00,38.5,26.2,29.62,North,0,0.0,0.0,61,0.00,,BKN,0.00,VWS V14.01,2013-01-15 19:35:00,
2013-01-15 13:40:00,38.5,25.8,29.62,North,0,0.0,0.0,60,0.00,,BKN,0.00,VWS V14.01,2013-01-15 19:40:00,
2013-01-15 13:45:00,38.5,25.4,29.62,North,0,0.0,0.0,59,0.00,,BKN,0.00,VWS V14.01,2013-01-15 19:45:00,
2013-01-15 13:50:00,38.5,25.4,29.62,North,0,0.0,0.0,59,0.00,,BKN,0.00,VWS V14.01,2013-01-15 19:50:00,
2013-01-15 13:55:00,38.5,25.4,29.62,North,0,0.0,0.0,59,0.00,,BKN,0.00,VWS V14.01,2013-01-15 19:55:00,
2013-01-15 14:01:00,38.3,24.8,29.62,North,0,0.0,0.0,58,0.00,,BKN,0.00,VWS V14.01,2013-01-15 20:01:00,
2013-01-15 14:06:00,38.1,24.2,29.62,North,0,0.0,0.0,57,0.00,,BKN,0.00,VWS V14.01,2013-01-15 20:06:00,
2013-01-15 14:11:00,38.1,23.8,29.62,North,0,0.0,0.0,56,0.00,,BKN,0.00,VWS V14.01,2013-01-15 20:11:00,
2013-01-15 14:16:00,38.5,24.6,29.62,North,0,0.0,0.0,57,0.00,,BKN,0.00,VWS V14.01,2013-01-15 20:16:00,
2013-01-15 14:21:00,38.5,24.2,29.62,North,0,0.0,0.0,56,0.00,,BKN,0.00,VWS V14.01,2013-01-15 20:21:00,
2013-01-15 14:26:00,38.7,23.9,29.62,North,0,0.0,0.0,55,0.00,,BKN,0.00,VWS V14.01,2013-01-15 20:26:00,
2013-01-15 14:31:00,38.7,23.9,29.62,North,0,0.0,0.0,55,0.00,,BKN,0.00,VWS V14.01,2013-01-15 20:31:00,
2013-01-15 14:37:00,38.5,22.4,29.62,North,0,0.0,0.0,52,0.00,,BKN,0.00,VWS V14.01,2013-01-15 20:37:00,
2013-01-15 14:42:00,38.1,22.1,29.62,North,0,0.0,0.0,52,0.00,,BKN,0.00,VWS V14.01,2013-01-15 20:42:00,
2013-01-15 14:47:00,38.3,22.7,29.62,North,0,0.0,0.0,53,0.00,,BKN,0.00,VWS V14.01,2013-01-15 20:47:00,
2013-01-15 14:52:00,38.5,23.3,29.62,North,0,0.0,0.0,54,0.00,,BKN,0.00,VWS V14.01,2013-01-15 20:52:00,
2013-01-15 14:57:00,39.0,23.8,29.62,North,0,0.0,0.0,54,0.00,,BKN,0.00,VWS V14.01,2013-01-15 20:57:00,
2013-01-15 15:02:00,39.2,24.0,29.62,North,0,0.0,0.0,54,0.00,,BKN,0.00,VWS V14.01,2013-01-15 21:02:00,
2013-01-15 15:07:00,39.2,24.4,29.62,North,0,0.0,0.0,55,0.00,,BKN,0.00,VWS V14.01,2013-01-15 21:07:00,
2013-01-15 15:12:00,39.4,24.6,29.62,North,0,0.0,0.0,55,0.00,,BKN,0.00,VWS V14.01,2013-01-15 21:12:00,
2013-01-15 15:18:00,39.4,25.0,29.62,North,0,0.0,0.0,56,0.00,,BKN,0.00,VWS V14.01,2013-01-15 21:18:00,
2013-01-15 15:23:00,39.4,25.0,29.62,North,0,0.0,0.0,56,0.00,,BKN,0.00,VWS V14.01,2013-01-15 21:23:00,
2013-01-15 15:28:00,39.4,25.0,29.62,North,0,0.0,0.0,56,0.00,,BKN,0.00,VWS V14.01,2013-01-15 21:28:00,
2013-01-15 15:33:00,39.4,25.0,29.62,North,0,0.0,0.0,56,0.00,,BKN,0.00,VWS V14.01,2013-01-15 21:33:00,
2013-01-15 15:38:00,39.2,23.5,29.62,North,0,0.0,0.0,53,0.00,,BKN,0.00,VWS V14.01,2013-01-15 21:38:00,
2013-01-15 15:43:00,39.4,23.2,29.62,North,0,0.0,0.0,52,0.00,,BKN,0.00,VWS V14.01,2013-01-15 21:43:00,
2013-01-15 15:48:00,39.6,23.9,29.62,North,0,0.0,0.0,53,0.00,,BKN,0.00,VWS V14.01,2013-01-15 21:48:00,
2013-01-15 15:54:00,39.6,23.9,29.62,North,0,0.0,0.0,53,0.00,,BKN,0.00,VWS V14.01,2013-01-15 21:54:00,
2013-01-15 15:59:00,39.7,24.0,29.62,North,0,0.0,0.0,53,0.00,,BKN,0.00,VWS V14.01,2013-01-15 21:59:00,
2013-01-15 16:04:00,39.7,23.6,29.62,North,0,0.0,0.0,52,0.00,,BKN,0.00,VWS V14.01,2013-01-15 22:04:00,
2013-01-15 16:09:00,39.7,23.1,29.62,North,0,0.0,0.0,51,0.00,,BKN,0.00,VWS V14.01,2013-01-15 22:09:00,
2013-01-15 16:14:00,39.7,23.1,29.62,North,0,0.0,0.0,51,0.00,,BKN,0.00,VWS V14.01,2013-01-15 22:14:00,
2013-01-15 16:20:00,39.6,22.9,29.62,North,0,0.0,0.0,51,0.00,,BKN,0.00,VWS V14.01,2013-01-15 22:20:00,
2013-01-15 16:25:00,39.4,22.8,29.62,North,0,0.0,0.0,51,0.00,,BKN,0.00,VWS V14.01,2013-01-15 22:25:00,
2013-01-15 16:30:00,39.4,22.8,29.65,North,0,0.0,0.0,51,0.00,,BKN,0.00,VWS V14.01,2013-01-15 22:30:00,
2013-01-15 16:35:00,39.4,22.8,29.65,North,0,0.0,0.0,51,0.00,,BKN,0.00,VWS V14.01,2013-01-15 22:35:00,
2013-01-15 16:40:00,39.6,22.9,29.65,North,0,0.0,0.0,51,0.00,,BKN,0.00,VWS V14.01,2013-01-15 22:40:00,
2013-01-15 16:45:00,39.6,22.5,29.65,North,0,0.0,0.0,50,0.00,,BKN,0.00,VWS V14.01,2013-01-15 22:45:00,
2013-01-15 16:50:00,39.6,22.9,29.65,North,0,0.0,0.0,51,0.00,,BKN,0.00,VWS V14.01,2013-01-15 22:50:00,
2013-01-15 16:55:00,39.7,23.1,29.65,North,0,0.0,0.0,51,0.00,,BKN,0.00,VWS V14.01,2013-01-15 22:55:00,
2013-01-15 17:00:00,39.4,22.3,29.65,North,0,0.0,0.0,50,0.00,,BKN,0.00,VWS V14.01,2013-01-15 23:00:00,
2013-01-15 17:05:00,39.4,22.8,29.65,North,0,0.0,0.0,51,0.00,,BKN,0.00,VWS V14.01,2013-01-15 23:05:00,
2013-01-15 17:10:00,39.2,22.6,29.65,North,0,0.0,0.0,51,0.00,,BKN,0.00,VWS V14.01,2013-01-15 23:10:00,
2013-01-15 17:15:00,39.2,22.6,29.65,North,0,0.0,0.0,51,0.00,,BKN,0.00,VWS V14.01,2013-01-15 23:15:00,
2013-01-15 17:20:00,39.2,22.6,29.65,North,0,0.0,0.0,51,0.00,,BKN,0.00,VWS V14.01,2013-01-15 23:20:00,
2013-01-15 17:26:00,39.2,22.1,29.65,North,0,0.0,0.0,50,0.00,,BKN,0.00,VWS V14.01,2013-01-15 23:26:00,
2013-01-15 17:31:00,39.0,22.0,29.65,North,0,0.0,0.0,50,0.00,,BKN,0.00,VWS V14.01,2013-01-15 23:31:00,
2013-01-15 17:36:00,39.0,22.4,29.65,North,0,0.0,0.0,51,0.00,,BKN,0.00,VWS V14.01,2013-01-15 23:36:00,
2013-01-15 17:41:00,39.0,22.4,29.65,North,0,0.0,0.0,51,0.00,,BKN,0.00,VWS V14.01,2013-01-15 23:41:00,
2013-01-15 17:46:00,39.0,22.4,29.65,North,0,0.0,0.0,51,0.00,,BKN,0.00,VWS V14.01,2013-01-15 23:46:00,
2013-01-15 17:51:00,38.8,21.8,29.65,North,0,0.0,0.0,50,0.00,,BKN,0.00,VWS V14.01,2013-01-15 23:51:00,
2013-01-15 17:57:00,38.8,22.3,29.65,North,0,0.0,0.0,51,0.00,,BKN,0.00,VWS V14.01,2013-01-15 23:57:00,
2013-01-15 18:02:00,39.0,22.4,29.65,North,0,0.0,0.0,51,0.00,,BKN,0.00,VWS V14.01,2013-01-16 00:02:00,
2013-01-15 18:07:00,39.0,22.4,29.65,North,0,0.0,0.0,51,0.00,,BKN,0.00,VWS V14.01,2013-01-16 00:07:00,
2013-01-15 18:12:00,39.2,22.6,29.65,North,0,0.0,0.0,51,0.00,,BKN,0.00,VWS V14.01,2013-01-16 00:12:00,
2013-01-15 18:17:00,39.2,22.1,29.65,North,0,0.0,0.0,50,0.00,,BKN,0.00,VWS V14.01,2013-01-16 00:17:00,
2013-01-15 18:22:00,39.2,22.1,29.65,North,0,0.0,0.0,50,0.00,,BKN,0.00,VWS V14.01,2013-01-16 00:22:00,
2013-01-15 18:27:00,39.2,22.1,29.65,North,0,0.0,0.0,50,0.00,,BKN,0.00,VWS V14.01,2013-01-16 00:27:00,
2013-01-15 18:32:00,39.2,22.1,29.65,North,0,0.0,0.0,50,0.00,,BKN,0.00,VWS V14.01,2013-01-16 00:32:00,
2013-01-15 18:38:00,39.2,22.1,29.65,North,0,0.0,0.0,50,0.00,,BKN,0.00,VWS V14.01,2013-01-16 00:38:00,
2013-01-15 18:43:00,39.2,22.1,29.65,North,0,0.0,0.0,50,0.00,,BKN,0.00,VWS V14.01,2013-01-16 00:43:00,
2013-01-15 18:48:00,39.4,22.3,29.68,North,0,0.0,0.0,50,0.00,,BKN,0.00,VWS V14.01,2013-01-16 00:48:00,
2013-01-15 18:53:00,39.4,22.8,29.68,North,0,0.0,0.0,51,0.00,,BKN,0.00,VWS V14.01,2013-01-16 00:53:00,
2013-01-15 18:58:00,39.4,22.8,29.68,North,0,0.0,0.0,51,0.00,,BKN,0.00,VWS V14.01,2013-01-16 00:58:00,
2013-01-15 19:03:00,39.4,22.3,29.68,North,0,0.0,0.0,50,0.00,,BKN,0.00,VWS V14.01,2013-01-16 01:03:00,
2013-01-15 19:08:00,39.4,22.3,29.68,North,0,0.0,0.0,50,0.00,,BKN,0.00,VWS V14.01,2013-01-16 01:08:00,
2013-01-15 19:13:00,39.4,22.8,29.68,North,0,0.0,0.0,51,0.00,,BKN,0.00,VWS V14.01,2013-01-16 01:13:00,
2013-01-15 19:18:00,39.4,22.8,29.68,North,0,0.0,0.0,51,0.00,,BKN,0.00,VWS V14.01,2013-01-16 01:18:00,
2013-01-15 19:24:00,39.2,22.1,29.68,North,0,0.0,0.0,50,0.00,,BKN,0.00,VWS V14.01,2013-01-16 01:24:00,
2013-01-15 19:29:00,39.2,22.1,29.68,North,0,0.0,0.0,50,0.00,,BKN,0.00,VWS V14.01,2013-01-16 01:29:00,
2013-01-15 19:34:00,39.2,22.1,29.68,North,0,0.0,0.0,50,0.00,,BKN,0.00,VWS V14.01,2013-01-16 01:34:00,
2013-01-15 19:39:00,39.2,22.1,29.68,North,0,0.0,0.0,50,0.00,,BKN,0.00,VWS V14.01,2013-01-16 01:39:00,
2013-01-15 19:44:00,39.2,22.1,29.68,North,0,0.0,0.0,50,0.00,,BKN,0.00,VWS V14.01,2013-01-16 01:44:00,
2013-01-15 19:49:00,39.2,22.1,29.68,North,0,0.0,0.0,50,0.00,,BKN,0.00,VWS V14.01,2013-01-16 01:49:00,
2013-01-15 19:54:00,39.0,22.0,29.68,North,0,0.0,0.0,50,0.00,,BKN,0.00,VWS V14.01,2013-01-16 01:54:00,
2013-01-15 19:59:00,38.8,21.8,29.68,North,0,0.0,0.0,50,0.00,,BKN,0.00,VWS V14.01,2013-01-16 01:59:00,
2013-01-15 20:04:00,38.8,21.8,29.68,North,0,0.0,0.0,50,0.00,,BKN,0.00,VWS V14.01,2013-01-16 02:04:00,
2013-01-15 20:09:00,38.8,21.8,29.68,North,0,0.0,0.0,50,0.00,,BKN,0.00,VWS V14.01,2013-01-16 02:09:00,
2013-01-15 20:15:00,38.7,21.6,29.68,North,0,0.0,0.0,50,0.00,,BKN,0.00,VWS V14.01,2013-01-16 02:15:00,
2013-01-15 20:20:00,38.7,22.1,29.68,North,0,0.0,0.0,51,0.00,,BKN,0.00,VWS V14.01,2013-01-16 02:20:00,
2013-01-15 20:25:00,38.7,22.1,29.68,North,0,0.0,0.0,51,0.00,,BKN,0.00,VWS V14.01,2013-01-16 02:25:00,
2013-01-15 20:30:00,38.7,21.6,29.68,North,0,0.0,0.0,50,0.00,,BKN,0.00,VWS V14.01,2013-01-16 02:30:00,
2013-01-15 20:35:00,38.5,21.5,29.68,North,0,0.0,0.0,50,0.00,,BKN,0.00,VWS V14.01,2013-01-16 02:35:00,
2013-01-15 20:40:00,38.5,21.5,29.68,North,0,0.0,0.0,50,0.00,,BKN,0.00,VWS V14.01,2013-01-16 02:40:00,
2013-01-15 20:45:00,38.5,21.5,29.68,North,0,0.0,0.0,50,0.00,,BKN,0.00,VWS V14.01,2013-01-16 02:45:00,
2013-01-15 20:50:00,38.3,20.8,29.68,North,0,0.0,0.0,49,0.00,,BKN,0.00,VWS V14.01,2013-01-16 02:50:00,
2013-01-15 20:55:00,38.1,20.7,29.68,North,0,0.0,0.0,49,0.00,,BKN,0.00,VWS V14.01,2013-01-16 02:55:00,
2013-01-15 21:00:00,37.9,20.5,29.68,North,0,0.0,0.0,49,0.00,,BKN,0.00,VWS V14.01,2013-01-16 03:00:00,
2013-01-15 21:05:00,37.8,20.8,29.68,North,0,0.0,0.0,50,0.00,,BKN,0.00,VWS V14.01,2013-01-16 03:05:00,
2013-01-15 21:11:00,37.6,20.6,29.68,North,0,0.0,0.0,50,0.00,,BKN,0.00,VWS V14.01,2013-01-16 03:11:00,
2013-01-15 21:16:00,37.4,20.0,29.68,North,0,0.0,0.0,49,0.00,,BKN,0.00,VWS V14.01,2013-01-16 03:16:00,
2013-01-15 21:21:00,37.2,20.3,29.68,North,0,0.0,0.0,50,0.00,,BKN,0.00,VWS V14.01,2013-01-16 03:21:00,
2013-01-15 21:26:00,37.0,20.1,29.68,North,0,0.0,0.0,50,0.00,,BKN,0.00,VWS V14.01,2013-01-16 03:26:00,
2013-01-15 21:31:00,36.9,20.0,29.68,North,0,0.0,0.0,50,0.00,,BKN,0.00,VWS V14.01,2013-01-16 03:31:00,
2013-01-15 21:36:00,36.9,20.0,29.68,North,0,0.0,0.0,50,0.00,,BKN,0.00,VWS V14.01,2013-01-16 03:36:00,
2013-01-15 21:41:00,36.7,19.8,29.68,North,0,0.0,0.0,50,0.00,,BKN,0.00,VWS V14.01,2013-01-16 03:41:00,
2013-01-15 21:46:00,36.7,19.8,29.68,North,0,0.0,0.0,50,0.00,,BKN,0.00,VWS V14.01,2013-01-16 03:46:00,
2013-01-15 21:52:00,36.5,19.2,29.68,North,0,0.0,0.0,49,0.00,,BKN,0.00,VWS V14.01,2013-01-16 03:52:00,
2013-01-15 21:57:00,36.3,19.0,29.68,North,0,0.0,0.0,49,0.00,,BKN,0.00,VWS V14.01,2013-01-16 03:57:00,
2013-01-15 22:02:00,36.3,19.0,29.68,North,0,0.0,0.0,49,0.00,,BKN,0.00,VWS V14.01,2013-01-16 04:02:00,
2013-01-15 22:07:00,36.1,18.8,29.68,North,0,0.0,0.0,49,0.00,,BKN,0.00,VWS V14.01,2013-01-16 04:07:00,
2013-01-15 22:12:00,36.0,18.7,29.68,North,0,0.0,0.0,49,0.00,,BKN,0.00,VWS V14.01,2013-01-16 04:12:00,
2013-01-15 22:17:00,35.8,18.5,29.68,North,0,0.0,0.0,49,0.00,,BKN,0.00,VWS V14.01,2013-01-16 04:17:00,
2013-01-15 22:22:00,35.8,18.5,29.68,North,0,0.0,0.0,49,0.00,,BKN,0.00,VWS V14.01,2013-01-16 04:22:00,
2013-01-15 22:27:00,35.6,18.3,29.68,North,0,0.0,0.0,49,0.00,,BKN,0.00,VWS V14.01,2013-01-16 04:27:00,
2013-01-15 22:33:00,35.6,18.3,29.68,North,0,0.0,0.0,49,0.00,,BKN,0.00,VWS V14.01,2013-01-16 04:33:00,
2013-01-15 22:38:00,35.4,18.6,29.68,North,0,0.0,0.0,50,0.00,,BKN,0.00,VWS V14.01,2013-01-16 04:38:00,
2013-01-15 22:43:00,35.4,18.6,29.68,North,0,0.0,0.0,50,0.00,,BKN,0.00,VWS V14.01,2013-01-16 04:43:00,
2013-01-15 22:48:00,35.2,18.5,29.68,North,0,0.0,0.0,50,0.00,,BKN,0.00,VWS V14.01,2013-01-16 04:48:00,
2013-01-15 22:53:00,35.1,18.3,29.68,North,0,0.0,0.0,50,0.00,,BKN,0.00,VWS V14.01,2013-01-16 04:53:00,
2013-01-15 22:58:00,35.1,18.3,29.68,North,0,0.0,0.0,50,0.00,,BKN,0.00,VWS V14.01,2013-01-16 04:58:00,
2013-01-15 23:00:00,34.9,18.1,29.68,North,0,0.0,0.0,50,0.00,,BKN,0.00,VWS V14.01,2013-01-16 05:00:00,
2013-01-15 23:01:00,35.1,18.3,29.68,North,0,0.0,0.0,50,0.00,,BKN,0.00,VWS V14.01,2013-01-16 05:01:00,
2013-01-15 23:02:00,35.1,18.3,29.68,North,0,0.0,0.0,50,0.00,,BKN,0.00,VWS V14.01,2013-01-16 05:02:00,
2013-01-15 23:05:00,35.1,18.3,29.68,North,0,0.0,0.0,50,0.00,,BKN,0.00,VWS V14.01,2013-01-16 05:05:00,
2013-01-15 23:10:00,35.1,18.3,29.68,North,0,0.0,0.0,50,0.00,,BKN,0.00,VWS V14.01,2013-01-16 05:10:00,
2013-01-15 23:15:00,34.9,17.7,29.68,North,0,0.0,0.0,49,0.00,,BKN,0.00,VWS V14.01,2013-01-16 05:15:00,
2013-01-15 23:20:00,34.7,18.0,29.68,North,0,0.0,0.0,50,0.00,,BKN,0.00,VWS V14.01,2013-01-16 05:20:00,
2013-01-15 23:25:00,34.7,17.5,29.68,North,0,0.0,0.0,49,0.00,,BKN,0.00,VWS V14.01,2013-01-16 05:25:00,
2013-01-15 23:30:00,34.9,17.7,29.68,North,0,0.0,0.0,49,0.00,,BKN,0.00,VWS V14.01,2013-01-16 05:30:00,
2013-01-15 23:35:00,34.7,17.5,29.68,North,0,0.0,0.0,49,0.00,,BKN,0.00,VWS V14.01,2013-01-16 05:35:00,
2013-01-15 23:40:00,34.5,17.3,29.68,North,0,0.0,0.0,49,0.00,,BKN,0.00,VWS V14.01,2013-01-16 05:40:00,
2013-01-15 23:45:00,34.5,17.3,29.68,North,0,0.0,0.0,49,0.00,,BKN,0.00,VWS V14.01,2013-01-16 05:45:00,
2013-01-15 23:50:00,34.5,17.3,29.68,North,0,0.0,0.0,49,0.00,,BKN,0.00,VWS V14.01,2013-01-16 05:50:00,
2013-01-15 23:55:00,34.7,17.5,29.68,North,0,0.0,0.0,49,0.00,,BKN,0.00,VWS V14.01,2013-01-16 05:55:00,